sat.trackr.live / text

‹ back to catalog

YAOGAN-39 02C

NORAD 57890 · 2023-145E

PAYLOAD ACTIVE UNKNOWN

§ Identity

Operator
Country
PRC
Launch date
2023-09-17
Launch site
XICLF
Launch vehicle
Mass (kg)
RCS (m²)

External: N2YO · Heavens-Above · Gunter

§ Orbital elements

Epoch: 2026-09-22T11:49:25.031712Z

Period
94.92 min
Inclination
34.9947°
Eccentricity
0.0001584
Mean motion
15.17013487 rev/d
Perigee alt
513.8 km
Apogee alt
516.0 km
Semi-major
6,893.0 km
B*
1.7205e-4
RAAN
337.9982°
Arg perigee
321.8750°
Mean anomaly
38.1850°
Rev number
16,764

§ Raw data

YAOGAN-39 02C1 57890U 23145E   26265.49265083  .00003447  00000+0  17205-3 0  99972 57890  34.9947 337.9982 0001584 321.8750  38.1850 15.17013487167648

JSON: /api/v1/satellites/57890 · /tle

For live sub-satellite position, see the globe view (requires WebGL).

§ Visibility from observer

Set your observer location to see the next 7 days of passes ≥ 10°. The values pass through the URL so the page stays shareable.

No JS? Fill the form by hand. The geolocation button needs JavaScript.